This demonstration page uses our WeatherBlox Daily Observations layout. Learn more.

Left ArrowRight Arrow

Hourly Observations for February 21, 2016

Temp ( °F °C ) Dew Point ( °F °C ) Humidity (%) Winds ( mph kmh ) Pressure ( in mb ) Visibility ( mi km ) Precip ( " mm )
12:51 am 00:51 Clear 46 7.8 34 1.1 63 63 NNE 3 6 29.82 1010 10 16 0.00 0.00
1:51 am 01:51 Clear 44 6.7 34 1.1 68 68 Calm 29.82 1010 10 16 0.00 0.00
2:51 am 02:51 Clear 44 6.7 34 1.1 68 68 Calm 29.83 1010 10 16 0.00 0.00
3:51 am 03:51 Clear 40 4.4 32 0 73 73 Calm 29.86 1011 10 16 0.00 0.00
4:51 am 04:51 Clear 35 1.7 29 -1.7 78 78 Calm 29.88 1012 10 16 0.00 0.00
5:51 am 05:51 Clear 45 7.2 32 0 61 61 W 6 9 29.89 1012 10 16 0.00 0.00
6:51 am 06:51 Sunny 45 7.2 31 -0.6 58 58 W 6 9 29.91 1013 10 16 0.00 0.00
7:51 am 07:51 Sunny 49 9.4 32 0 52 52 W 7 11 29.93 1014 10 16 0.00 0.00
8:51 am 08:51 Sunny 50 10 32 0 50 50 NW 8 13 29.94 1014 10 16 0.00 0.00
9:51 am 09:51 Sunny 51 10.6 32 0 48 48 NW 10 17 29.93 1014 10 16 0.00 0.00
10:51 am 10:51 Sunny 53 11.7 30 -1.1 41 41 NNW 12 19 29.92 1013 10 16 0.00 0.00
11:51 am 11:51 Sunny 53 11.7 30 -1.1 41 41 NW 10 17 29.92 1013 10 16 0.00 0.00
12:51 pm 12:51 Mostly Sunny 54 12.2 30 -1.1 40 40 N 7 11 29.90 1013 10 16 0.00 0.00
1:51 pm 13:51 Sunny 54 12.2 30 -1.1 40 40 NNW 8 13 29.88 1012 10 16 0.00 0.00
2:51 pm 14:51 Partly Cloudy 55 12.8 30 -1.1 38 38 NNW 8 13 29.87 1011 10 16 0.00 0.00
3:51 pm 15:51 Mostly Cloudy 55 13 28 -2 36 36 Calm 29.88 1012 10 16 0.00 0.00
4:51 pm 16:51 Mostly Cloudy 54 12.2 30 -1.1 40 40 NNE 5 7 29.88 1012 10 16 0.00 0.00
5:51 pm 17:51 Cloudy with Light Rain 54 12.2 32 0 43 43 Calm 29.89 1012 10 16 0.00 0.03
6:51 pm 18:51 Cloudy with Light Rain 51 10.6 34 1.1 52 52 Calm 29.92 1013 10 16 0.00 0.03
7:51 pm 19:51 Cloudy with Light Rain 49 9.4 37 2.8 64 64 Calm 29.93 1014 10 16 0.00 0.03
8:51 pm 20:51 Cloudy with Light Rain 49 9.4 36 2.2 61 61 Calm 29.94 1014 10 16 0.01 0.25
9:51 pm 21:51 Cloudy with Light Rain 47 8.3 37 2.8 69 69 N 6 9 29.96 1015 10 16 0.00 0.03
10:51 pm 22:51 Cloudy with Light Rain 45 7.2 35 1.7 68 68 NNE 8 13 29.96 1015 10 16 0.00 0.03
11:51 pm 23:51 Mostly Cloudy 44 6.7 31 -0.6 60 60 NNE 6 9 29.96 1015 10 16 0.00 0.03

Powered by Vaisala Xweather